Location: ?ern� Novina
(50.6762°N, 14.8696°E)
Time: 02:56:22
(UTC+00:00)

Cosmos 1666 Rocket - Pass Details

Date: 03 March 2021
Orbit: 605 x 632 km, 82.5° (Epoch: 13 April)

Event Time Altitude Azimuth Distance (km) Brightness Sun altitude
Rises 17:21:12 0° 182° (S) 2,858 7.0 -6.5°
Reaches altitude 10° 17:23:24 10° 181° (S) 1,956 6.2 -6.8°
Maximum altitude 17:27:42 72° 98° (E) 644 3.5 -7.5°
Drops below altitude 10° 17:32:02 10° 14° (NNE) 1,966 6.0 -8.2°
Sets 17:34:16 0° 12° (NNE) 2,874 6.9 -8.5°
